Tomahawk, WI

5:54 AM CDT on September 21, 2017 (GMT -0500)
Tomahawk

Weather History for KTKV - July, 2014

Change the Weather History Date:

Thursday, July 3, 2014

  Actual Average (KRHI) Record (KRHI)
Temperature  
Mean Temperature 54 °F -  
Max Temperature 71 °F 76 °F 93 °F (1911)
Min Temperature 37 °F 54 °F 38 °F (1924)
Degree Days  
Heating Degree Days 11    
Growing Degree Days 4 (Base 50)    
Moisture  
Dew Point 43 °F    
Average Humidity 69    
Maximum Humidity 97    
Minimum Humidity 35    
Precipitation  
Precipitation 0.00 in - - ()
Sea Level Pressure  
Sea Level Pressure 30.15 in    
Wind  
Wind Speed 1 mph (NNW)    
Max Wind Speed 12 mph    
Max Gust Speed 17 mph    
Visibility 10 miles    
Events Rain    
Averages and records for this station are not official NWS values.
T = Trace of Precipitation, MM = Missing Value Source: NWS Daily Summary

Daily Weather History Graph

Daily Weather History Graph

Search for Another Location

Airport or City:

Trip Planner

Search our weather history database for the weather conditions in past years. The results will help you decide how hot, cold, wet, or windy it might be!

Date:

Astronomy

Jul. 03, 2014 Rise Set
Actual Time 5:15 AM CDT 8:50 PM CDT
Civil Twilight 4:38 AM CDT 9:28 PM CDT
Nautical Twilight 3:48 AM CDT 10:18 PM CDT
Astronomical Twilight 2:41 AM CDT 11:24 PM CDT
Moon 11:33 AM CDT (7/3) 11:53 PM CDT (7/3)
Length of Visible Light 16h 50m
Length of Day
15h 35m
Waxing Crescent, 33% of the Moon is Illuminated
Jul 3
Waxing Crescent
Jul 5
First Quarter
Jul 12
Full
Jul 18
Last Quarter
Jul 26
New

Hourly Weather History & Observations

Time (CDT) Temp. Dew Point Humidity Pressure Visibility Wind Dir Wind Speed Gust Speed Precip Events Conditions
12:15 AM 40.3 °F 38.8 °F 95% 30.08 in 10.0 mi Calm Calm - N/A   Clear
12:35 AM 40.6 °F 39.4 °F 95% 30.08 in 10.0 mi Calm Calm - N/A   Clear
12:55 AM 40.1 °F 38.7 °F 95% 30.08 in 10.0 mi Calm Calm - N/A   Clear
1:15 AM 39.4 °F 38.3 °F 96% 30.08 in 10.0 mi Calm Calm - N/A   Clear
1:35 AM 39.2 °F 37.9 °F 95% 30.08 in 10.0 mi Calm Calm - N/A   Clear
1:55 AM 39.2 °F 38.1 °F 96% 30.09 in 10.0 mi Calm Calm - N/A   Clear
2:15 AM 39.2 °F 38.3 °F 97% 30.08 in 10.0 mi Calm Calm - N/A   Clear
2:35 AM 39.0 °F 37.8 °F 95% 30.08 in 10.0 mi Calm Calm - N/A   Clear
2:55 AM 38.8 °F 37.8 °F 96% 30.08 in 10.0 mi Calm Calm - N/A   Clear
3:15 AM 38.7 °F 37.4 °F 95% 30.08 in 10.0 mi Calm Calm - N/A   Clear
3:35 AM 38.3 °F 37.2 °F 96% 30.08 in 10.0 mi Calm Calm - N/A   Clear
3:55 AM 38.3 °F 37.4 °F 97% 30.08 in 10.0 mi Calm Calm - N/A   Clear
4:15 AM 38.5 °F 37.2 °F 95% 30.09 in 10.0 mi Calm Calm - N/A   Clear
4:35 AM 37.6 °F 36.3 °F 95% 30.09 in 10.0 mi Calm Calm - N/A   Clear
4:55 AM 37.8 °F 36.7 °F 96% 30.09 in 10.0 mi Calm Calm - N/A   Clear
5:15 AM 37.9 °F 36.9 °F 96% 30.10 in 10.0 mi Calm Calm - N/A   Clear
5:35 AM 38.3 °F 37.2 °F 96% 30.11 in 10.0 mi Calm Calm - N/A   Clear
5:55 AM 39.4 °F 38.3 °F 96% 30.11 in 10.0 mi Calm Calm - N/A   Clear
6:15 AM 42.1 °F 41.0 °F 96% 30.12 in 10.0 mi Calm Calm - N/A   Clear
6:35 AM 43.2 °F 42.1 °F 96% 30.13 in 10.0 mi Calm Calm - N/A   Clear
6:55 AM 44.2 °F 43.0 °F 95% 30.13 in 10.0 mi Calm Calm - N/A   Clear
7:15 AM 45.9 °F 44.4 °F 95% 30.13 in 10.0 mi Calm Calm - N/A   Clear
7:35 AM 49.3 °F 46.9 °F 92% 30.14 in 10.0 mi Calm Calm - N/A   Clear
7:55 AM 52.9 °F 48.0 °F 84% 30.14 in 10.0 mi Calm Calm - N/A   Clear
8:15 AM 55.9 °F 48.6 °F 76% 30.14 in 10.0 mi Calm Calm - N/A   Clear
8:35 AM 59.0 °F 49.6 °F 71% 30.14 in 10.0 mi Calm Calm - N/A   Clear
8:55 AM 61.0 °F 49.5 °F 66% 30.15 in 10.0 mi Calm Calm - N/A   Clear
9:15 AM 62.8 °F 50.0 °F 63% 30.15 in 10.0 mi Calm Calm - N/A   Clear
9:35 AM 64.0 °F 49.1 °F 58% 30.15 in 10.0 mi WNW 3.5 mph - N/A   Clear
9:55 AM 65.7 °F 49.5 °F 56% 30.15 in 10.0 mi West 9.2 mph - N/A   Scattered Clouds
10:15 AM 65.8 °F 47.5 °F 52% 30.15 in 10.0 mi NNW 8.1 mph - N/A   Scattered Clouds
10:35 AM 66.2 °F 48.4 °F 53% 30.15 in 10.0 mi WNW 6.9 mph - N/A   Scattered Clouds
10:55 AM 67.1 °F 47.8 °F 50% 30.15 in 10.0 mi Calm Calm - N/A   Scattered Clouds
11:15 AM 67.1 °F 46.9 °F 48% 30.15 in 10.0 mi Calm Calm - N/A   Mostly Cloudy
11:35 AM 64.6 °F 47.8 °F 55% 30.15 in 10.0 mi Calm Calm - N/A   Overcast
11:55 AM 66.0 °F 47.1 °F 50% 30.15 in 10.0 mi NW 4.6 mph - N/A   Mostly Cloudy
12:15 PM 66.9 °F 45.9 °F 47% 30.15 in 10.0 mi NW 10.4 mph 17.3 mph N/A   Overcast
12:35 PM 69.3 °F 48.2 °F 47% 30.15 in 10.0 mi NW 3.5 mph 16.1 mph N/A   Mostly Cloudy
12:55 PM 67.5 °F 47.5 °F 49% 30.15 in 10.0 mi West 11.5 mph 17.3 mph N/A   Mostly Cloudy
1:15 PM 68.5 °F 49.1 °F 50% 30.15 in 10.0 mi NW 10.4 mph 17.3 mph N/A   Overcast
1:35 PM 60.8 °F 49.1 °F 65% 30.16 in 10.0 mi NNE 3.5 mph - N/A Rain Light Rain
1:55 PM 66.0 °F 48.0 °F 52% 30.16 in 10.0 mi North 3.5 mph - N/A   Mostly Cloudy
2:15 PM 65.5 °F 48.6 °F 54% 30.16 in 10.0 mi Calm Calm - N/A   Mostly Cloudy
2:35 PM 68.5 °F 47.7 °F 47% 30.15 in 10.0 mi Calm Calm - N/A   Mostly Cloudy
2:55 PM 69.6 °F 46.9 °F 44% 30.15 in 10.0 mi NNW 3.5 mph - N/A   Scattered Clouds
3:15 PM 67.8 °F 47.5 °F 48% 30.15 in 10.0 mi Calm Calm - N/A   Scattered Clouds
3:35 PM 70.5 °F 46.4 °F 42% 30.16 in 10.0 mi Calm Calm - N/A   Mostly Cloudy
3:55 PM 67.5 °F 45.7 °F 46% 30.16 in 10.0 mi Calm Calm - N/A   Overcast
4:15 PM 71.4 °F 45.5 °F 39% 30.16 in 10.0 mi North 6.9 mph - N/A   Mostly Cloudy
4:35 PM 68.4 °F 43.2 °F 40% 30.16 in 10.0 mi North 3.5 mph - N/A   Scattered Clouds
4:55 PM 70.5 °F 44.1 °F 39% 30.16 in 10.0 mi Calm Calm - N/A   Scattered Clouds
5:15 PM 70.2 °F 41.7 °F 36% 30.16 in 10.0 mi North 6.9 mph - N/A   Scattered Clouds
5:35 PM 69.8 °F 41.9 °F 36% 30.16 in 10.0 mi NNE 9.2 mph - N/A   Mostly Cloudy
5:55 PM 69.8 °F 41.7 °F 36% 30.16 in 10.0 mi Calm Calm - N/A   Mostly Cloudy
6:15 PM 69.1 °F 39.9 °F 35% 30.17 in 10.0 mi Calm Calm - N/A   Scattered Clouds
6:35 PM 68.9 °F 40.5 °F 35% 30.17 in 10.0 mi Calm Calm - N/A   Clear
6:55 PM 68.5 °F 39.6 °F 35% 30.18 in 10.0 mi Calm Calm - N/A   Scattered Clouds
7:15 PM 68.0 °F 40.6 °F 37% 30.18 in 10.0 mi Calm Calm - N/A   Scattered Clouds
7:35 PM 66.9 °F 38.8 °F 36% 30.18 in 10.0 mi North 4.6 mph - N/A   Clear
7:55 PM 65.5 °F 39.6 °F 39% 30.18 in 10.0 mi Calm Calm - N/A   Clear
8:15 PM 63.7 °F 40.8 °F 43% 30.19 in 10.0 mi Calm Calm - N/A   Clear
8:35 PM 60.1 °F 44.1 °F 55% 30.19 in 10.0 mi Calm Calm - N/A   Clear
8:55 PM 54.7 °F 47.1 °F 76% 30.19 in 10.0 mi Calm Calm - N/A   Clear
9:15 PM 52.2 °F 45.7 °F 79% 30.20 in 10.0 mi Calm Calm - N/A   Clear
9:35 PM 50.0 °F 45.5 °F 85% 30.21 in 10.0 mi Calm Calm - N/A   Clear
9:55 PM 48.4 °F 44.6 °F 87% 30.21 in 10.0 mi Calm Calm - N/A   Clear
10:15 PM 46.8 °F 44.2 °F 91% 30.21 in 10.0 mi Calm Calm - N/A   Clear
10:35 PM 45.9 °F 43.7 °F 92% 30.22 in 10.0 mi Calm Calm - N/A   Clear
10:55 PM 45.1 °F 43.0 °F 92% 30.23 in 10.0 mi Calm Calm - N/A   Clear
11:15 PM 43.9 °F 41.9 °F 93% 30.23 in 10.0 mi Calm Calm - N/A   Clear
11:35 PM 43.3 °F 41.4 °F 93% 30.24 in 10.0 mi Calm Calm - N/A   Clear
11:55 PM 43.0 °F 41.4 °F 94% 30.25 in 10.0 mi Calm Calm - N/A   Clear